Wetterdaten: Montag, 24.10.2016
Datum Zeit Temp. Auen Feucht Auen Luftdruck Regen Richtung Richtung Windben
24.10.2016 00:00 5,8 C 95 % 1016,0 hPa 0,0 mm W 273 0,0 km/h (0 Bft)
24.10.2016 00:05 5,8 C 95 % 1015,9 hPa 0,0 mm W 273 3,2 km/h (1 Bft)
24.10.2016 00:10 5,8 C 95 % 1016,0 hPa 0,0 mm W 273 1,6 km/h (1 Bft)
24.10.2016 00:15 5,7 C 95 % 1015,9 hPa 0,0 mm W 273 0,0 km/h (0 Bft)
24.10.2016 00:20 5,7 C 95 % 1015,7 hPa 0,0 mm W 273 0,0 km/h (0 Bft)
24.10.2016 00:25 5,6 C 95 % 1015,7 hPa 0,0 mm W 273 0,0 km/h (0 Bft)
24.10.2016 00:30 5,3 C 95 % 1015,7 hPa 0,0 mm W 273 0,0 km/h (0 Bft)
24.10.2016 00:35 5,4 C 95 % 1015,7 hPa 0,0 mm W 273 1,6 km/h (1 Bft)
24.10.2016 00:40 5,3 C 95 % 1015,7 hPa 0,0 mm W 273 3,2 km/h (1 Bft)
24.10.2016 00:45 5,2 C 95 % 1015,6 hPa 0,0 mm W 273 0,0 km/h (0 Bft)
24.10.2016 00:50 4,9 C 95 % 1015,7 hPa 0,0 mm W 273 0,0 km/h (0 Bft)
24.10.2016 00:55 4,8 C 95 % 1015,8 hPa 0,0 mm W 273 3,2 km/h (1 Bft)
24.10.2016 01:00 4,8 C 95 % 1015,9 hPa 0,0 mm W 273 3,2 km/h (1 Bft)
24.10.2016 01:05 4,9 C 95 % 1015,9 hPa 0,0 mm W 273 0,0 km/h (0 Bft)
24.10.2016 01:10 5,1 C 95 % 1015,8 hPa 0,0 mm W 273 1,6 km/h (1 Bft)
24.10.2016 01:15 5,2 C 95 % 1015,8 hPa 0,0 mm W 273 1,6 km/h (1 Bft)
24.10.2016 01:20 5,2 C 95 % 1015,8 hPa 0,0 mm W 273 1,6 km/h (1 Bft)
24.10.2016 01:25 5,3 C 95 % 1016,0 hPa 0,0 mm W 273 0,0 km/h (0 Bft)
24.10.2016 01:30 5,4 C 95 % 1016,0 hPa 0,0 mm W 273 0,0 km/h (0 Bft)
24.10.2016 01:35 5,3 C 95 % 1015,8 hPa 0,0 mm W 273 1,6 km/h (1 Bft)
24.10.2016 01:40 5,4 C 95 % 1016,0 hPa 0,0 mm W 273 1,6 km/h (1 Bft)
24.10.2016 01:45 5,6 C 95 % 1016,1 hPa 0,0 mm W 273 3,2 km/h (1 Bft)
24.10.2016 01:50 5,7 C 95 % 1016,0 hPa 0,0 mm W 273 0,0 km/h (0 Bft)
24.10.2016 01:55 5,8 C 95 % 1015,9 hPa 0,0 mm W 273 0,0 km/h (0 Bft)
24.10.2016 02:00 5,8 C 95 % 1015,8 hPa 0,0 mm W 273 0,0 km/h (0 Bft)
24.10.2016 02:05 5,9 C 95 % 1015,7 hPa 0,0 mm W 273 0,0 km/h (0 Bft)
24.10.2016 02:10 6,1 C 95 % 1015,7 hPa 0,0 mm W 273 3,2 km/h (1 Bft)
24.10.2016 02:15 6,1 C 95 % 1015,8 hPa 0,0 mm W 273 1,6 km/h (1 Bft)
24.10.2016 02:20 6,1 C 95 % 1015,9 hPa 0,0 mm W 273 0,0 km/h (0 Bft)
24.10.2016 02:25 6,1 C 95 % 1015,9 hPa 0,0 mm W 273 0,0 km/h (0 Bft)
24.10.2016 02:30 6,0 C 95 % 1015,9 hPa 0,0 mm W 273 1,6 km/h (1 Bft)
24.10.2016 02:35 6,1 C 95 % 1015,9 hPa 0,0 mm W 273 1,6 km/h (1 Bft)
24.10.2016 02:40 6,1 C 95 % 1016,1 hPa 0,0 mm W 273 4,8 km/h (1 Bft)
24.10.2016 02:45 6,2 C 95 % 1016,1 hPa 0,0 mm W 273 3,2 km/h (1 Bft)
24.10.2016 02:50 6,2 C 95 % 1016,0 hPa 0,0 mm W 273 0,0 km/h (0 Bft)
24.10.2016 02:55 6,3 C 95 % 1015,9 hPa 0,0 mm W 273 0,0 km/h (0 Bft)
24.10.2016 03:00 6,3 C 95 % 1016,0 hPa 0,0 mm W 273 1,6 km/h (1 Bft)
24.10.2016 03:05 6,4 C 95 % 1016,1 hPa 0,0 mm W 273 0,0 km/h (0 Bft)
24.10.2016 03:10 6,3 C 95 % 1015,9 hPa 0,0 mm W 273 0,0 km/h (0 Bft)
24.10.2016 03:15 6,3 C 95 % 1015,8 hPa 0,0 mm W 273 0,0 km/h (0 Bft)
24.10.2016 03:20 6,2 C 95 % 1015,9 hPa 0,0 mm W 273 0,0 km/h (0 Bft)
24.10.2016 03:25 6,2 C 95 % 1015,9 hPa 0,0 mm W 273 0,0 km/h (0 Bft)
24.10.2016 03:30 6,1 C 95 % 1015,9 hPa 0,0 mm W 273 0,0 km/h (0 Bft)
24.10.2016 03:35 5,9 C 95 % 1015,9 hPa 0,0 mm W 273 0,0 km/h (0 Bft)
24.10.2016 03:40 5,8 C 95 % 1015,9 hPa 0,0 mm W 273 0,0 km/h (0 Bft)
24.10.2016 03:45 5,8 C 95 % 1015,9 hPa 0,0 mm W 273 0,0 km/h (0 Bft)
24.10.2016 03:50 5,6 C 95 % 1015,9 hPa 0,0 mm W 273 0,0 km/h (0 Bft)
24.10.2016 03:55 5,4 C 95 % 1015,8 hPa 0,0 mm W 273 0,0 km/h (0 Bft)
24.10.2016 04:00 5,3 C 95 % 1015,8 hPa 0,0 mm W 273 0,0 km/h (0 Bft)
24.10.2016 04:05 5,3 C 95 % 1015,8 hPa 0,0 mm W 273 0,0 km/h (0 Bft)
24.10.2016 04:10 5,5 C 95 % 1015,9 hPa 0,0 mm W 273 3,2 km/h (1 Bft)
24.10.2016 04:15 5,6 C 95 % 1016,1 hPa 0,0 mm W 273 0,0 km/h (0 Bft)
24.10.2016 04:20 5,2 C 95 % 1016,1 hPa 0,0 mm W 273 1,6 km/h (1 Bft)
24.10.2016 04:25 5,1 C 95 % 1016,2 hPa 0,0 mm W 273 1,6 km/h (1 Bft)
24.10.2016 04:30 5,2 C 95 % 1016,2 hPa 0,0 mm W 273 3,2 km/h (1 Bft)
24.10.2016 04:35 5,2 C 95 % 1016,2 hPa 0,2 mm W 273 3,2 km/h (1 Bft)
24.10.2016 04:40 4,9 C 95 % 1016,2 hPa 0,0 mm W 273 0,0 km/h (0 Bft)
24.10.2016 04:45 4,7 C 95 % 1016,2 hPa 0,0 mm W 273 0,0 km/h (0 Bft)
24.10.2016 04:50 4,6 C 95 % 1016,2 hPa 0,0 mm W 273 0,0 km/h (0 Bft)
24.10.2016 04:55 4,5 C 95 % 1016,4 hPa 0,0 mm W 273 1,6 km/h (1 Bft)
24.10.2016 05:00 4,4 C 95 % 1016,4 hPa 0,0 mm W 273 1,6 km/h (1 Bft)
24.10.2016 05:05 4,6 C 95 % 1016,5 hPa 0,0 mm W 273 0,0 km/h (0 Bft)
24.10.2016 05:10 4,7 C 95 % 1016,5 hPa 0,0 mm W 273 0,0 km/h (0 Bft)
24.10.2016 05:15 4,7 C 95 % 1016,5 hPa 0,0 mm W 273 0,0 km/h (0 Bft)
24.10.2016 05:20 4,6 C 95 % 1016,6 hPa 0,0 mm W 273 0,0 km/h (0 Bft)
24.10.2016 05:25 4,6 C 95 % 1016,5 hPa 0,0 mm W 273 0,0 km/h (0 Bft)
24.10.2016 05:30 4,3 C 95 % 1016,7 hPa 0,0 mm W 273 0,0 km/h (0 Bft)
24.10.2016 05:35 4,2 C 95 % 1016,6 hPa 0,0 mm W 273 1,6 km/h (1 Bft)
24.10.2016 05:40 4,4 C 95 % 1016,7 hPa 0,0 mm W 273 0,0 km/h (0 Bft)
24.10.2016 05:45 4,1 C 95 % 1016,7 hPa 0,0 mm W 273 0,0 km/h (0 Bft)
24.10.2016 05:50 3,9 C 95 % 1016,8 hPa 0,0 mm W 273 0,0 km/h (0 Bft)
24.10.2016 05:55 3,8 C 95 % 1016,8 hPa 0,0 mm W 273 0,0 km/h (0 Bft)
24.10.2016 06:00 3,8 C 95 % 1016,9 hPa 0,0 mm W 273 0,0 km/h (0 Bft)
24.10.2016 06:05 3,6 C 95 % 1016,9 hPa 0,0 mm W 273 0,0 km/h (0 Bft)
24.10.2016 06:10 3,5 C 95 % 1017,0 hPa 0,0 mm W 273 0,0 km/h (0 Bft)
24.10.2016 06:15 3,4 C 95 % 1017,0 hPa 0,0 mm W 273 0,0 km/h (0 Bft)
24.10.2016 06:20 3,4 C 95 % 1017,0 hPa 0,0 mm W 273 0,0 km/h (0 Bft)
24.10.2016 06:25 3,5 C 95 % 1017,1 hPa 0,0 mm W 273 0,0 km/h (0 Bft)
24.10.2016 06:30 3,4 C 95 % 1017,0 hPa 0,0 mm W 273 0,0 km/h (0 Bft)
24.10.2016 06:35 3,5 C 95 % 1017,0 hPa 0,0 mm W 273 0,0 km/h (0 Bft)
24.10.2016 06:40 3,5 C 95 % 1017,0 hPa 0,0 mm W 273 0,0 km/h (0 Bft)
24.10.2016 06:45 3,5 C 95 % 1017,0 hPa 0,0 mm W 273 0,0 km/h (0 Bft)
24.10.2016 06:50 3,6 C 95 % 1017,0 hPa 0,0 mm W 273 0,0 km/h (0 Bft)
24.10.2016 06:55 3,6 C 95 % 1017,0 hPa 0,0 mm W 273 0,0 km/h (0 Bft)
24.10.2016 07:00 3,3 C 95 % 1017,1 hPa 0,0 mm W 273 0,0 km/h (0 Bft)
24.10.2016 07:05 3,3 C 95 % 1017,0 hPa 0,0 mm W 273 0,0 km/h (0 Bft)
24.10.2016 07:10 3,3 C 95 % 1017,1 hPa 0,0 mm W 273 0,0 km/h (0 Bft)
24.10.2016 07:15 3,2 C 95 % 1017,1 hPa 0,0 mm W 273 0,0 km/h (0 Bft)
24.10.2016 07:20 3,4 C 95 % 1017,1 hPa 0,0 mm W 273 0,0 km/h (0 Bft)
24.10.2016 07:25 3,3 C 95 % 1017,2 hPa 0,0 mm W 273 0,0 km/h (0 Bft)
24.10.2016 07:30 3,2 C 95 % 1017,1 hPa 0,0 mm W 273 0,0 km/h (0 Bft)
24.10.2016 07:35 3,1 C 95 % 1017,1 hPa 0,0 mm W 273 0,0 km/h (0 Bft)
24.10.2016 07:40 3,1 C 95 % 1017,0 hPa 0,0 mm W 273 0,0 km/h (0 Bft)
24.10.2016 07:45 3,1 C 95 % 1017,1 hPa 0,0 mm W 273 0,0 km/h (0 Bft)
24.10.2016 07:50 3,1 C 95 % 1017,1 hPa 0,0 mm W 273 0,0 km/h (0 Bft)
24.10.2016 07:55 3,3 C 95 % 1017,1 hPa 0,0 mm W 273 0,0 km/h (0 Bft)
24.10.2016 08:00 3,3 C 95 % 1017,2 hPa 0,0 mm W 273 0,0 km/h (0 Bft)
24.10.2016 08:05 3,6 C 95 % 1017,2 hPa 0,0 mm W 273 0,0 km/h (0 Bft)
24.10.2016 08:10 3,6 C 95 % 1017,2 hPa 0,0 mm W 273 0,0 km/h (0 Bft)
24.10.2016 08:15 3,6 C 95 % 1017,2 hPa 0,0 mm W 273 0,0 km/h (0 Bft)
24.10.2016 08:20 3,8 C 95 % 1017,2 hPa 0,0 mm W 273 0,0 km/h (0 Bft)
24.10.2016 08:25 4,1 C 95 % 1017,3 hPa 0,0 mm W 273 0,0 km/h (0 Bft)
24.10.2016 08:30 4,3 C 95 % 1017,3 hPa 0,0 mm W 273 0,0 km/h (0 Bft)
24.10.2016 08:35 4,4 C 95 % 1017,3 hPa 0,0 mm W 273 0,0 km/h (0 Bft)
24.10.2016 08:40 4,6 C 95 % 1017,3 hPa 0,0 mm W 273 0,0 km/h (0 Bft)
24.10.2016 08:45 4,8 C 95 % 1017,4 hPa 0,0 mm W 273 0,0 km/h (0 Bft)
24.10.2016 08:50 5,2 C 95 % 1017,4 hPa 0,0 mm W 273 0,0 km/h (0 Bft)
24.10.2016 08:55 5,6 C 95 % 1017,5 hPa 0,0 mm W 273 0,0 km/h (0 Bft)
24.10.2016 09:00 6,2 C 95 % 1017,6 hPa 0,0 mm W 273 0,0 km/h (0 Bft)
24.10.2016 09:05 6,6 C 95 % 1017,7 hPa 0,0 mm W 273 0,0 km/h (0 Bft)
24.10.2016 09:10 7,1 C 95 % 1017,7 hPa 0,0 mm W 273 0,0 km/h (0 Bft)
24.10.2016 09:15 7,6 C 95 % 1017,7 hPa 0,0 mm W 273 0,0 km/h (0 Bft)
24.10.2016 09:20 8,2 C 95 % 1017,6 hPa 0,0 mm W 273 0,0 km/h (0 Bft)
24.10.2016 09:25 7,8 C 95 % 1017,6 hPa 0,0 mm W 273 0,0 km/h (0 Bft)
24.10.2016 09:30 8,3 C 94 % 1017,6 hPa 0,0 mm W 273 0,0 km/h (0 Bft)
24.10.2016 09:35 8,9 C 94 % 1017,7 hPa 0,0 mm W 273 0,0 km/h (0 Bft)
24.10.2016 09:40 8,7 C 93 % 1017,6 hPa 0,0 mm W 273 0,0 km/h (0 Bft)
24.10.2016 09:45 8,6 C 93 % 1017,6 hPa 0,0 mm W 273 0,0 km/h (0 Bft)
24.10.2016 09:50 8,7 C 93 % 1017,6 hPa 0,0 mm W 273 0,0 km/h (0 Bft)
24.10.2016 09:55 8,9 C 93 % 1017,7 hPa 0,0 mm W 273 0,0 km/h (0 Bft)
24.10.2016 10:00 9,0 C 92 % 1017,7 hPa 0,0 mm W 273 0,0 km/h (0 Bft)
24.10.2016 10:05 9,2 C 92 % 1017,6 hPa 0,0 mm W 273 0,0 km/h (0 Bft)
24.10.2016 10:10 9,7 C 92 % 1017,6 hPa 0,0 mm W 273 0,0 km/h (0 Bft)
24.10.2016 10:15 10,4 C 92 % 1017,5 hPa 0,0 mm O-SO 115 4,8 km/h (1 Bft)
24.10.2016 10:20 10,5 C 88 % 1017,6 hPa 0,0 mm O 100 6,4 km/h (2 Bft)
24.10.2016 10:25 10,6 C 87 % 1017,5 hPa 0,0 mm O-SO 119 6,4 km/h (2 Bft)
24.10.2016 10:30 10,6 C 86 % 1017,4 hPa 0,0 mm O-SO 119 4,8 km/h (1 Bft)
24.10.2016 10:35 10,6 C 86 % 1017,4 hPa 0,0 mm SO 134 4,8 km/h (1 Bft)
24.10.2016 10:40 10,4 C 86 % 1017,3 hPa 0,0 mm SO 130 4,8 km/h (1 Bft)
24.10.2016 10:45 10,3 C 86 % 1017,1 hPa 0,0 mm S-SO 153 4,8 km/h (1 Bft)
24.10.2016 10:50 10,4 C 87 % 1017,2 hPa 0,0 mm SO 138 6,4 km/h (2 Bft)
24.10.2016 10:55 10,8 C 86 % 1017,1 hPa 0,0 mm S-SO 147 4,8 km/h (1 Bft)
24.10.2016 11:00 11,2 C 85 % 1017,1 hPa 0,0 mm SO 131 4,8 km/h (1 Bft)
24.10.2016 11:05 11,6 C 83 % 1017,2 hPa 0,0 mm S-SO 153 6,4 km/h (2 Bft)
24.10.2016 11:10 11,6 C 82 % 1017,1 hPa 0,0 mm SO 142 6,4 km/h (2 Bft)
24.10.2016 11:15 11,6 C 82 % 1017,1 hPa 0,0 mm S-SO 149 6,4 km/h (2 Bft)
24.10.2016 11:20 11,9 C 82 % 1017,2 hPa 0,0 mm S-SO 157 4,8 km/h (1 Bft)
24.10.2016 11:25 12,2 C 83 % 1017,2 hPa 0,0 mm SO 140 6,4 km/h (2 Bft)
24.10.2016 11:30 12,4 C 80 % 1017,1 hPa 0,0 mm S-SO 156 8,0 km/h (2 Bft)
24.10.2016 11:35 12,7 C 80 % 1017,1 hPa 0,0 mm S-SO 150 6,4 km/h (2 Bft)
24.10.2016 11:40 12,8 C 80 % 1017,0 hPa 0,0 mm SO 146 6,4 km/h (2 Bft)
24.10.2016 11:45 13,0 C 79 % 1017,0 hPa 0,0 mm O-SO 109 8,0 km/h (2 Bft)
24.10.2016 11:50 13,1 C 79 % 1016,9 hPa 0,0 mm S-SO 153 6,4 km/h (2 Bft)
24.10.2016 11:55 13,2 C 79 % 1017,0 hPa 0,0 mm SO 138 6,4 km/h (2 Bft)
24.10.2016 12:00 13,3 C 79 % 1016,8 hPa 0,0 mm O-SO 104 8,0 km/h (2 Bft)
24.10.2016 12:05 13,5 C 78 % 1016,6 hPa 0,0 mm SO 133 9,7 km/h (2 Bft)
24.10.2016 12:10 13,6 C 79 % 1016,5 hPa 0,0 mm S-SO 151 11,3 km/h (2 Bft)
24.10.2016 12:15 13,8 C 79 % 1016,3 hPa 0,0 mm O-SO 113 11,3 km/h (2 Bft)
24.10.2016 12:20 13,9 C 79 % 1016,2 hPa 0,0 mm O-SO 121 9,7 km/h (2 Bft)
24.10.2016 12:25 14,0 C 78 % 1016,3 hPa 0,0 mm SO 142 8,0 km/h (2 Bft)
24.10.2016 12:30 14,1 C 79 % 1016,4 hPa 0,0 mm O-SO 112 8,0 km/h (2 Bft)
24.10.2016 12:35 14,2 C 79 % 1016,5 hPa 0,0 mm SO 145 8,0 km/h (2 Bft)
24.10.2016 12:40 14,3 C 78 % 1016,5 hPa 0,0 mm SO 132 9,7 km/h (2 Bft)
24.10.2016 12:45 14,4 C 77 % 1016,5 hPa 0,0 mm O-SO 112 6,4 km/h (2 Bft)
24.10.2016 12:50 14,4 C 76 % 1016,5 hPa 0,0 mm O 89 9,7 km/h (2 Bft)
24.10.2016 12:55 14,4 C 75 % 1016,5 hPa 0,0 mm SO 131 9,7 km/h (2 Bft)
24.10.2016 13:00 14,5 C 74 % 1016,6 hPa 0,0 mm O-SO 117 6,4 km/h (2 Bft)
24.10.2016 13:05 14,6 C 75 % 1016,7 hPa 0,0 mm SO 128 4,8 km/h (1 Bft)
24.10.2016 13:10 14,5 C 74 % 1016,7 hPa 0,0 mm SO 134 6,4 km/h (2 Bft)
24.10.2016 13:15 14,4 C 75 % 1016,7 hPa 0,0 mm SO 135 4,8 km/h (1 Bft)
24.10.2016 13:20 14,6 C 74 % 1016,8 hPa 0,0 mm SO 135 3,2 km/h (1 Bft)
24.10.2016 13:25 14,7 C 74 % 1016,7 hPa 0,0 mm SO 134 3,2 km/h (1 Bft)
24.10.2016 13:30 14,8 C 75 % 1016,7 hPa 0,0 mm SO 134 4,8 km/h (1 Bft)
24.10.2016 13:35 14,9 C 76 % 1016,7 hPa 0,0 mm SO 143 8,0 km/h (2 Bft)
24.10.2016 13:40 14,8 C 76 % 1016,7 hPa 0,0 mm O-SO 109 8,0 km/h (2 Bft)
24.10.2016 13:45 14,7 C 79 % 1016,7 hPa 0,0 mm O-SO 113 6,4 km/h (2 Bft)
24.10.2016 13:50 14,4 C 80 % 1016,7 hPa 0,0 mm O-SO 114 6,4 km/h (2 Bft)
24.10.2016 13:55 14,5 C 81 % 1016,8 hPa 0,0 mm O-SO 117 9,7 km/h (2 Bft)
24.10.2016 14:00 14,6 C 80 % 1016,8 hPa 0,0 mm SO 129 8,0 km/h (2 Bft)
24.10.2016 14:05 14,0 C 80 % 1016,8 hPa 0,0 mm O-SO 116 8,0 km/h (2 Bft)
24.10.2016 14:10 13,3 C 83 % 1016,9 hPa 0,0 mm O-SO 102 8,0 km/h (2 Bft)
24.10.2016 14:15 12,9 C 84 % 1016,8 hPa 0,0 mm O-SO 106 8,0 km/h (2 Bft)
24.10.2016 14:20 12,7 C 85 % 1016,8 hPa 0,0 mm O-SO 121 8,0 km/h (2 Bft)
24.10.2016 14:25 13,2 C 86 % 1016,7 hPa 0,0 mm O-SO 121 9,7 km/h (2 Bft)
24.10.2016 14:30 13,4 C 84 % 1016,8 hPa 0,0 mm O-SO 105 8,0 km/h (2 Bft)
24.10.2016 14:35 13,4 C 84 % 1016,8 hPa 0,0 mm O 92 9,7 km/h (2 Bft)
24.10.2016 14:40 13,3 C 84 % 1016,8 hPa 0,0 mm O 92 4,8 km/h (1 Bft)
24.10.2016 14:45 13,3 C 84 % 1016,8 hPa 0,0 mm O-SO 119 6,4 km/h (2 Bft)
24.10.2016 14:50 13,2 C 84 % 1016,7 hPa 0,0 mm O-SO 121 6,4 km/h (2 Bft)
24.10.2016 14:55 13,1 C 83 % 1016,8 hPa 0,0 mm O-SO 104 6,4 km/h (2 Bft)
24.10.2016 15:00 13,0 C 84 % 1016,8 hPa 0,0 mm O 92 6,4 km/h (2 Bft)
24.10.2016 15:05 12,9 C 84 % 1016,8 hPa 0,0 mm O 82 8,0 km/h (2 Bft)
24.10.2016 15:10 12,9 C 84 % 1016,8 hPa 0,0 mm SO 132 8,0 km/h (2 Bft)
24.10.2016 15:15 12,8 C 85 % 1016,8 hPa 0,0 mm O-SO 121 8,0 km/h (2 Bft)
24.10.2016 15:20 12,6 C 86 % 1016,8 hPa 0,0 mm O-SO 115 8,0 km/h (2 Bft)
24.10.2016 15:25 12,5 C 86 % 1016,7 hPa 0,0 mm O-SO 113 8,0 km/h (2 Bft)
24.10.2016 15:30 12,4 C 87 % 1016,7 hPa 0,0 mm SO 128 8,0 km/h (2 Bft)
24.10.2016 15:35 12,2 C 87 % 1016,7 hPa 0,0 mm SO 129 8,0 km/h (2 Bft)
24.10.2016 15:40 12,1 C 88 % 1016,7 hPa 0,0 mm O-SO 113 8,0 km/h (2 Bft)
24.10.2016 15:45 11,9 C 88 % 1016,7 hPa 0,0 mm O-SO 109 6,4 km/h (2 Bft)
24.10.2016 15:50 11,8 C 88 % 1016,7 hPa 0,0 mm O-SO 112 6,4 km/h (2 Bft)
24.10.2016 15:55 11,8 C 88 % 1016,6 hPa 0,0 mm O-SO 119 6,4 km/h (2 Bft)
24.10.2016 16:00 11,9 C 88 % 1016,6 hPa 0,0 mm O-SO 123 6,4 km/h (2 Bft)
24.10.2016 16:05 11,9 C 87 % 1016,5 hPa 0,0 mm O-SO 105 6,4 km/h (2 Bft)
24.10.2016 16:10 11,8 C 87 % 1016,5 hPa 0,0 mm O-SO 116 6,4 km/h (2 Bft)
24.10.2016 16:15 11,8 C 88 % 1016,5 hPa 0,0 mm SO 127 8,0 km/h (2 Bft)
24.10.2016 16:20 11,8 C 88 % 1016,3 hPa 0,0 mm O 89 8,0 km/h (2 Bft)
24.10.2016 16:25 11,9 C 89 % 1016,2 hPa 0,0 mm O-SO 112 4,8 km/h (1 Bft)
24.10.2016 16:30 11,9 C 88 % 1016,3 hPa 0,0 mm O-SO 119 6,4 km/h (2 Bft)
24.10.2016 16:35 11,9 C 88 % 1016,2 hPa 0,0 mm O-SO 119 4,8 km/h (1 Bft)
24.10.2016 16:40 11,9 C 88 % 1016,3 hPa 0,0 mm O-SO 119 4,8 km/h (1 Bft)
24.10.2016 16:45 11,8 C 89 % 1016,3 hPa 0,0 mm O-SO 119 3,2 km/h (1 Bft)
24.10.2016 16:50 11,7 C 89 % 1016,2 hPa 0,0 mm O-SO 119 4,8 km/h (1 Bft)
24.10.2016 16:55 11,6 C 89 % 1016,1 hPa 0,0 mm O-SO 119 3,2 km/h (1 Bft)
24.10.2016 17:00 11,4 C 89 % 1016,1 hPa 0,0 mm O-SO 119 1,6 km/h (1 Bft)
24.10.2016 17:05 11,2 C 90 % 1016,0 hPa 0,0 mm O-SO 119 1,6 km/h (1 Bft)
24.10.2016 17:10 11,0 C 91 % 1016,0 hPa 0,0 mm O-SO 119 3,2 km/h (1 Bft)
24.10.2016 17:15 11,1 C 91 % 1015,9 hPa 0,0 mm O-SO 119 3,2 km/h (1 Bft)
24.10.2016 17:20 11,1 C 91 % 1016,0 hPa 0,0 mm O-SO 119 0,0 km/h (0 Bft)
24.10.2016 17:25 11,1 C 91 % 1016,1 hPa 0,0 mm O-SO 119 0,0 km/h (0 Bft)
24.10.2016 17:30 10,9 C 91 % 1016,2 hPa 0,0 mm O-SO 119 0,0 km/h (0 Bft)
24.10.2016 17:35 10,9 C 91 % 1016,1 hPa 0,0 mm O-SO 119 0,0 km/h (0 Bft)
24.10.2016 17:40 10,8 C 91 % 1016,2 hPa 0,0 mm O-SO 119 1,6 km/h (1 Bft)
24.10.2016 17:45 10,6 C 91 % 1016,2 hPa 0,0 mm O-SO 119 1,6 km/h (1 Bft)
24.10.2016 17:50 10,5 C 92 % 1016,2 hPa 0,0 mm O-SO 119 1,6 km/h (1 Bft)
24.10.2016 17:55 10,4 C 91 % 1016,3 hPa 0,0 mm O-SO 119 0,0 km/h (0 Bft)
24.10.2016 18:00 10,4 C 92 % 1016,3 hPa 0,0 mm O-SO 119 1,6 km/h (1 Bft)
24.10.2016 18:05 10,0 C 91 % 1016,2 hPa 0,0 mm O-SO 119 0,0 km/h (0 Bft)
24.10.2016 18:10 9,7 C 92 % 1016,4 hPa 0,0 mm O-SO 119 0,0 km/h (0 Bft)
24.10.2016 18:15 9,6 C 92 % 1016,4 hPa 0,0 mm O-SO 119 0,0 km/h (0 Bft)
24.10.2016 18:20 9,6 C 93 % 1016,4 hPa 0,0 mm O-SO 119 0,0 km/h (0 Bft)
24.10.2016 18:25 9,6 C 93 % 1016,4 hPa 0,0 mm O-SO 119 0,0 km/h (0 Bft)
24.10.2016 18:30 9,1 C 92 % 1016,4 hPa 0,0 mm O-SO 119 0,0 km/h (0 Bft)
24.10.2016 18:35 8,7 C 92 % 1016,4 hPa 0,0 mm O-SO 119 0,0 km/h (0 Bft)
24.10.2016 18:40 8,8 C 94 % 1016,4 hPa 0,0 mm O-SO 119 0,0 km/h (0 Bft)
24.10.2016 18:45 8,6 C 93 % 1016,4 hPa 0,0 mm O-SO 119 0,0 km/h (0 Bft)
24.10.2016 18:50 8,7 C 94 % 1016,6 hPa 0,0 mm O-SO 119 0,0 km/h (0 Bft)
24.10.2016 18:55 8,7 C 94 % 1016,6 hPa 0,0 mm O-SO 119 0,0 km/h (0 Bft)
24.10.2016 19:00 8,9 C 94 % 1016,6 hPa 0,0 mm O-SO 119 0,0 km/h (0 Bft)
24.10.2016 19:05 8,9 C 94 % 1016,6 hPa 0,0 mm O-SO 119 0,0 km/h (0 Bft)
24.10.2016 19:10 8,9 C 94 % 1016,6 hPa 0,0 mm O-SO 119 0,0 km/h (0 Bft)
24.10.2016 19:15 8,6 C 94 % 1016,6 hPa 0,0 mm O-SO 119 0,0 km/h (0 Bft)
24.10.2016 19:20 8,1 C 94 % 1016,6 hPa 0,0 mm O-SO 119 0,0 km/h (0 Bft)
24.10.2016 19:25 8,0 C 94 % 1016,6 hPa 0,0 mm O-SO 119 0,0 km/h (0 Bft)
24.10.2016 19:30 8,1 C 94 % 1016,7 hPa 0,0 mm O-SO 119 0,0 km/h (0 Bft)
24.10.2016 19:35 7,9 C 94 % 1016,7 hPa 0,0 mm S-SO 167 3,2 km/h (1 Bft)
24.10.2016 19:40 7,9 C 94 % 1016,6 hPa 0,0 mm SW 225 3,2 km/h (1 Bft)
24.10.2016 19:45 7,9 C 94 % 1016,6 hPa 0,0 mm SW 225 0,0 km/h (0 Bft)
24.10.2016 19:50 7,8 C 94 % 1016,6 hPa 0,0 mm SW 225 0,0 km/h (0 Bft)
24.10.2016 19:55 7,8 C 94 % 1016,7 hPa 0,0 mm SW 225 1,6 km/h (1 Bft)
24.10.2016 20:00 7,7 C 94 % 1016,7 hPa 0,0 mm SW 225 0,0 km/h (0 Bft)
24.10.2016 20:05 7,9 C 94 % 1016,7 hPa 0,0 mm SW 225 0,0 km/h (0 Bft)
24.10.2016 20:10 7,8 C 94 % 1016,8 hPa 0,0 mm SW 225 0,0 km/h (0 Bft)
24.10.2016 20:15 8,0 C 95 % 1016,9 hPa 0,0 mm SW 225 0,0 km/h (0 Bft)
24.10.2016 20:20 7,9 C 94 % 1016,7 hPa 0,0 mm SW 225 3,2 km/h (1 Bft)
24.10.2016 20:25 7,7 C 94 % 1016,7 hPa 0,0 mm SW 225 0,0 km/h (0 Bft)
24.10.2016 20:30 7,7 C 94 % 1016,7 hPa 0,0 mm SW 225 0,0 km/h (0 Bft)
24.10.2016 20:35 7,7 C 94 % 1016,6 hPa 0,0 mm SW 225 1,6 km/h (1 Bft)
24.10.2016 20:40 7,8 C 94 % 1016,7 hPa 0,0 mm SW 225 0,0 km/h (0 Bft)
24.10.2016 20:45 7,8 C 94 % 1016,6 hPa 0,0 mm SW 225 0,0 km/h (0 Bft)
24.10.2016 20:50 8,0 C 95 % 1016,7 hPa 0,0 mm SW 225 3,2 km/h (1 Bft)
24.10.2016 20:55 7,8 C 94 % 1016,8 hPa 0,0 mm SW 225 1,6 km/h (1 Bft)
24.10.2016 21:00 7,8 C 94 % 1016,7 hPa 0,0 mm SW 225 1,6 km/h (1 Bft)
24.10.2016 21:05 7,9 C 94 % 1016,7 hPa 0,0 mm SW 225 3,2 km/h (1 Bft)
24.10.2016 21:10 7,9 C 94 % 1016,6 hPa 0,0 mm SW 225 1,6 km/h (1 Bft)
24.10.2016 21:15 7,8 C 94 % 1016,6 hPa 0,0 mm SW 225 1,6 km/h (1 Bft)
24.10.2016 21:20 7,8 C 94 % 1016,7 hPa 0,0 mm SW 228 3,2 km/h (1 Bft)
24.10.2016 21:25 8,1 C 95 % 1016,6 hPa 0,0 mm W-SW 250 3,2 km/h (1 Bft)
24.10.2016 21:30 8,2 C 94 % 1016,7 hPa 0,0 mm W-SW 250 1,6 km/h (1 Bft)
24.10.2016 21:35 8,2 C 94 % 1016,6 hPa 0,0 mm W-SW 250 1,6 km/h (1 Bft)
24.10.2016 21:40 8,2 C 94 % 1016,6 hPa 0,0 mm W-SW 250 0,0 km/h (0 Bft)
24.10.2016 21:45 7,9 C 94 % 1016,6 hPa 0,0 mm W-SW 251 3,2 km/h (1 Bft)
24.10.2016 21:50 7,9 C 95 % 1016,6 hPa 0,0 mm W-SW 251 4,8 km/h (1 Bft)
24.10.2016 21:55 8,1 C 94 % 1016,6 hPa 0,0 mm W-SW 251 1,6 km/h (1 Bft)
24.10.2016 22:00 8,0 C 95 % 1016,6 hPa 0,0 mm W-SW 251 0,0 km/h (0 Bft)
24.10.2016 22:05 8,1 C 95 % 1016,7 hPa 0,0 mm W-SW 251 0,0 km/h (0 Bft)
24.10.2016 22:10 7,8 C 94 % 1016,8 hPa 0,0 mm W-SW 251 1,6 km/h (1 Bft)
24.10.2016 22:15 7,6 C 94 % 1016,7 hPa 0,0 mm W-SW 251 0,0 km/h (0 Bft)
24.10.2016 22:20 7,6 C 95 % 1016,8 hPa 0,0 mm W-SW 251 0,0 km/h (0 Bft)
24.10.2016 22:25 7,8 C 95 % 1016,8 hPa 0,0 mm W-SW 251 3,2 km/h (1 Bft)
24.10.2016 22:30 7,7 C 94 % 1016,8 hPa 0,0 mm W-SW 251 0,0 km/h (0 Bft)
24.10.2016 22:35 7,5 C 95 % 1016,8 hPa 0,0 mm W-SW 251 0,0 km/h (0 Bft)
24.10.2016 22:40 7,4 C 95 % 1016,7 hPa 0,0 mm W-SW 251 0,0 km/h (0 Bft)
24.10.2016 22:45 7,3 C 95 % 1016,8 hPa 0,0 mm W-SW 251 0,0 km/h (0 Bft)
24.10.2016 22:50 7,6 C 95 % 1016,8 hPa 0,0 mm W-SW 251 4,8 km/h (1 Bft)
24.10.2016 22:55 7,4 C 95 % 1016,8 hPa 0,0 mm W-SW 251 0,0 km/h (0 Bft)
24.10.2016 23:00 7,1 C 95 % 1016,9 hPa 0,0 mm W-SW 251 1,6 km/h (1 Bft)
24.10.2016 23:05 6,9 C 95 % 1016,9 hPa 0,0 mm W-SW 251 1,6 km/h (1 Bft)
24.10.2016 23:10 7,1 C 95 % 1016,9 hPa 0,0 mm W-SW 251 0,0 km/h (0 Bft)
24.10.2016 23:15 7,3 C 95 % 1016,8 hPa 0,0 mm W-SW 251 1,6 km/h (1 Bft)
24.10.2016 23:20 7,1 C 95 % 1016,9 hPa 0,0 mm W-SW 251 1,6 km/h (1 Bft)
24.10.2016 23:25 6,9 C 95 % 1016,9 hPa 0,0 mm W-SW 251 3,2 km/h (1 Bft)
24.10.2016 23:30 7,1 C 95 % 1016,9 hPa 0,0 mm W 259 4,8 km/h (1 Bft)
24.10.2016 23:35 6,9 C 95 % 1016,8 hPa 0,0 mm W 259 1,6 km/h (1 Bft)
24.10.2016 23:40 6,9 C 95 % 1016,7 hPa 0,0 mm W 259 0,0 km/h (0 Bft)
24.10.2016 23:45 6,8 C 95 % 1016,7 hPa 0,0 mm W 259 0,0 km/h (0 Bft)
24.10.2016 23:50 6,9 C 95 % 1016,7 hPa 0,0 mm W 259 0,0 km/h (0 Bft)
24.10.2016 23:55 6,8 C 95 % 1016,8 hPa 0,0 mm W 259 3,2 km/h (1 Bft)
_ Min-Zeit 07:35 13:00 00:45 - - - 00:00
Minimum _ 3,0 C 74 % 1015,6 hPa - - - 0,0 km/h (0 Bft)
_ Max-Zeit 13:35 00:00 09:05 04:35 - - 12:10
Maximum _ 14,9 C 95 % 1017,7 hPa 0,2 mm - - 11,3 km/h
SO (2 Bft)
Durchschnitt _ 8,3 C 91 % 1016,6 hPa #0,2 mm W - 2,5 km/h (1 Bft)